Kinston, NC

10:02 AM EDT on July 25, 2017 (GMT -0400)
Kinston Regional Jetport / Stallings Field

Weather History for KISO - March, 2013

Change the Weather History Date:

Wednesday, March 20, 2013

  Actual Average Record
Temperature  
Mean Temperature 47 °F -  
Max Temperature 57 °F 63 °F 82 °F (2002)
Min Temperature 37 °F 42 °F 21 °F (1967)
Degree Days  
Heating Degree Days 18    
Moisture  
Dew Point 17 °F    
Average Humidity 33    
Maximum Humidity 77    
Minimum Humidity 14    
Precipitation  
Precipitation 0.00 in - - ()
Sea Level Pressure  
Sea Level Pressure 29.98 in    
Wind  
Wind Speed 6 mph (NW)    
Max Wind Speed 12 mph    
Max Gust Speed 17 mph    
Visibility 10 miles    
Events      
Averages and records for this station are not official NWS values.
T = Trace of Precipitation, MM = Missing Value Source: NWS Daily Summary

Daily Weather History Graph

Daily Weather History Graph

Search for Another Location

Airport or City:

Trip Planner

Search our weather history database for the weather conditions in past years. The results will help you decide how hot, cold, wet, or windy it might be!

Date:

Astronomy

Mar. 20, 2013 Rise Set
Actual Time 7:13 AM EDT 7:22 PM EDT
Civil Twilight 6:48 AM EDT 7:47 PM EDT
Nautical Twilight 6:18 AM EDT 8:17 PM EDT
Astronomical Twilight 5:48 AM EDT 8:47 PM EDT
Moon 1:07 PM EDT (3/20) 2:40 AM EDT (3/20)
Length of Visible Light 12h 59m
Length of Day
12h 08m
First Quarter, 59% of the Moon is Illuminated
Mar 20
First Quarter
Mar 27
Full
Apr 3
Last Quarter
Apr 10
New
Apr 18
First Quarter

Hourly Weather History & Observations

Time (EDT) Temp. Windchill Dew Point Humidity Pressure Visibility Wind Dir Wind Speed Gust Speed Precip Events Conditions
12:15 AM 55.2 °F - 21.0 °F 26% 29.99 in 10.0 mi NNW 10.4 mph 16.1 mph N/A   Clear
12:35 AM 54.3 °F - 19.8 °F 26% 30.00 in 10.0 mi NW 8.1 mph - N/A   Clear
12:55 AM 52.3 °F - 20.3 °F 28% 30.00 in 10.0 mi NW 5.8 mph - N/A   Clear
1:15 AM 52.3 °F - 19.4 °F 27% 30.01 in 10.0 mi NNW 6.9 mph - N/A   Clear
1:35 AM 51.6 °F - 18.9 °F 28% 30.01 in 10.0 mi NNW 8.1 mph - N/A   Clear
1:55 AM 51.8 °F - 15.1 °F 23% 30.01 in 10.0 mi NNW 9.2 mph - N/A   Clear
2:15 AM 51.1 °F - 13.8 °F 23% 30.01 in 10.0 mi NNW 9.2 mph - N/A   Clear
2:35 AM 50.4 °F - 13.1 °F 23% 30.02 in 10.0 mi NNW 8.1 mph - N/A   Clear
2:55 AM 50.2 °F - 11.3 °F 21% 30.02 in 10.0 mi NNW 6.9 mph - N/A   Clear
3:15 AM 49.1 °F - 11.7 °F 22% 30.02 in 10.0 mi NW 4.6 mph - N/A   Clear
3:35 AM 47.5 °F - 13.1 °F 25% 30.02 in 10.0 mi NW 3.5 mph - N/A   Clear
3:55 AM 46.8 °F - 13.6 °F 26% 30.01 in 10.0 mi NW 5.8 mph - N/A   Clear
4:15 AM 45.9 °F 43.6 °F 13.3 °F 27% 30.02 in 10.0 mi NW 4.6 mph - N/A   Clear
4:35 AM 44.8 °F 42.4 °F 13.3 °F 28% 30.01 in 10.0 mi NNW 4.6 mph - N/A   Clear
4:55 AM 43.7 °F 41.1 °F 14.7 °F 31% 30.02 in 10.0 mi NW 4.6 mph - N/A   Clear
5:15 AM 42.8 °F - 14.2 °F 31% 30.02 in 10.0 mi Calm Calm - N/A   Clear
5:35 AM 41.7 °F 38.8 °F 15.1 °F 34% 30.03 in 10.0 mi NW 4.6 mph - N/A   Clear
5:55 AM 43.9 °F 40.5 °F 12.4 °F 28% 30.04 in 10.0 mi NNW 5.8 mph - N/A   Clear
6:15 AM 43.7 °F 41.1 °F 11.3 °F 27% 30.04 in 10.0 mi NNW 4.6 mph - N/A   Clear
6:35 AM 42.3 °F 38.6 °F 11.7 °F 29% 30.05 in 10.0 mi NNW 5.8 mph - N/A   Clear
6:55 AM 43.0 °F 41.3 °F 12.4 °F 29% 30.05 in 10.0 mi NNW 3.5 mph - N/A   Clear
6:56 AM 42.8 °F 41.1 °F 12.2 °F 29% 30.05 in 10.0 mi NNW 3.5 mph - N/A   Clear
7:56 AM 44.6 °F 42.2 °F 12.2 °F 27% 30.08 in 10.0 mi NW 4.6 mph - N/A   Clear
8:56 AM 46.4 °F 43.5 °F 12.2 °F 25% 30.11 in 10.0 mi NNW 5.8 mph - N/A   Clear
9:56 AM 48.2 °F - 12.2 °F 24% 30.12 in 10.0 mi NNW 11.5 mph 17.3 mph N/A   Clear
10:56 AM 51.8 °F - 12.2 °F 21% 30.12 in 10.0 mi NNW 10.4 mph - N/A   Clear
11:56 AM 53.6 °F - 10.4 °F 18% 30.11 in 10.0 mi North 9.2 mph - N/A   Clear
12:56 PM 53.6 °F - 8.6 °F 16% 30.08 in 10.0 mi North 9.2 mph - N/A   Clear
1:56 PM 55.4 °F - 6.8 °F 14% 30.04 in 10.0 mi NNW 5.8 mph - N/A   Clear
2:56 PM 55.4 °F - 10.4 °F 17% 29.99 in 10.0 mi SW 6.9 mph - N/A   Clear
3:56 PM 55.4 °F - 6.8 °F 14% 29.94 in 10.0 mi Calm Calm - N/A   Clear
4:56 PM 57.2 °F - 8.6 °F 14% 29.91 in 10.0 mi SSW 4.6 mph - N/A   Clear
5:56 PM 55.4 °F - 12.2 °F 18% 29.89 in 10.0 mi SSE 4.6 mph - N/A   Clear
6:56 PM 53.6 °F - 17.6 °F 24% 29.90 in 10.0 mi South 3.5 mph - N/A   Clear
7:56 PM 50.0 °F - 24.8 °F 37% 29.90 in 10.0 mi South 3.5 mph - N/A   Clear
8:56 PM 48.2 °F - 26.6 °F 43% 29.88 in 10.0 mi Calm Calm - N/A   Clear
9:15 PM 49.3 °F - 24.8 °F 38% 29.87 in 10.0 mi SSE 5.8 mph - N/A   Clear
9:35 PM 47.7 °F - 28.9 °F 48% 29.87 in 10.0 mi SSE 4.6 mph - N/A   Clear
9:55 PM 45.9 °F 43.6 °F 29.7 °F 53% 29.87 in 10.0 mi South 4.6 mph - N/A   Clear
9:56 PM 46.4 °F 44.3 °F 30.2 °F 53% 29.87 in 10.0 mi South 4.6 mph - N/A   Clear
10:15 PM 43.9 °F - 30.4 °F 59% 29.86 in 10.0 mi Calm Calm - N/A   Clear
10:35 PM 42.1 °F - 31.5 °F 66% 29.86 in 10.0 mi Calm Calm - N/A   Clear
10:55 PM 39.6 °F - 30.9 °F 71% 29.85 in 10.0 mi Calm Calm - N/A   Clear
11:15 PM 37.8 °F - 30.9 °F 76% 29.84 in 10.0 mi Calm Calm - N/A   Clear
11:35 PM 37.9 °F - 31.3 °F 77% 29.83 in 10.0 mi Calm Calm - N/A   Clear
11:55 PM 37.2 °F - 30.2 °F 76% 29.83 in 10.0 mi Calm Calm - N/A   Clear